GW7035 Weather Reports


time (UTC)temp
C
wind
direction
speed
KPH
gust
KPH
rain 1hr
cm
rain 24hr
cm
rain mn
cm
humidity
%
barometer
mb
20260507225002 11 225 4.8 0.0 0.00 0.00 0.00 49 1007.1
20260507224502 11 293 14.5 0.0 0.00 0.00 0.00 47 1007.1
20260507224002 11 270 12.9 0.0 0.00 0.00 0.00 46 1007.1
20260507223502 11 270 8.0 0.0 0.00 0.00 0.00 47 1007.1
20260507223002 11 270 12.9 0.0 0.00 0.00 0.00 45 1007.1
20260507222501 12 270 16.1 0.0 0.00 0.00 0.00 45 1007.1
20260507222001 11 293 11.3 0.0 0.00 0.00 0.00 46 1007.1
20260507221502 11 270 11.3 0.0 0.00 0.00 0.00 45 1007.1
20260507221002 11 270 14.5 0.0 0.00 0.00 0.00 45 1007.1
20260507220502 11 270 14.5 0.0 0.00 0.00 0.00 44 1007.1
20260507220002 11 270 14.5 0.0 0.00 0.00 0.00 43 1007.1
20260507215502 12 270 9.7 0.0 0.00 0.00 0.00 42 1007.1
20260507215002 12 270 14.5 0.0 0.00 0.00 0.00 42 1006.8
20260507214502 12 248 11.3 0.0 0.00 0.00 0.00 42 1006.8
20260507214002 12 248 19.3 0.0 0.00 0.00 0.00 42 1006.8
20260507213501 12 270 9.7 0.0 0.00 0.00 0.00 42 1006.8
20260507213001 12 270 9.7 0.0 0.00 0.00 0.00 41 1006.8
20260507212501 12 270 9.7 0.0 0.00 0.00 0.00 42 1006.8
20260507212002 12 270 22.5 0.0 0.00 0.00 0.00 41 1006.8
20260507211501 12 270 16.1 0.0 0.00 0.00 0.00 42 1006.8
20260507211002 12 270 11.3 0.0 0.00 0.00 0.00 40 1006.8
20260507210002 13 270 11.3 0.0 0.00 0.00 0.00 42 1006.4
20260507205502 12 270 12.9 0.0 0.00 0.00 0.00 44 1006.4
20260507204502 12 270 16.1 0.0 0.00 0.00 0.00 45 1006.4
20260507203501 12 225 12.9 0.0 0.00 0.00 0.00 43 1006.4
20260507203002 12 270 17.7 0.0 0.00 0.00 0.00 43 1006.4
20260507202501 13 248 12.9 0.0 0.00 0.00 0.00 43 1006.4
20260507202002 13 270 19.3 0.0 0.00 0.00 0.00 42 1006.4
20260507201502 13 270 11.3 0.0 0.00 0.00 0.00 40 1006.4
20260507201001 13 270 17.7 0.0 0.00 0.00 0.00 42 1006.4
20260507200501 12 270 14.5 0.0 0.00 0.00 0.00 43 1006.4
20260507200002 11 270 17.7 0.0 0.00 0.00 0.00 44 1006.4
20260507195502 11 293 14.5 0.0 0.00 0.00 0.00 46 1006.4
20260507195002 11 270 14.5 0.0 0.00 0.00 0.00 46 1006.4
20260507194002 11 203 8.0 0.0 0.00 0.00 0.00 48 1006.4
20260507193502 11 248 12.9 0.0 0.00 0.00 0.00 47 1006.4
20260507193001 11 180 4.8 0.0 0.00 0.00 0.00 47 1006.8
20260507192502 11 270 6.4 0.0 0.00 0.00 0.00 46 1006.4
20260507192002 11 270 19.3 0.0 0.00 0.00 0.00 44 1006.4
20260507191502 12 225 8.0 0.0 0.00 0.00 0.00 43 1006.4
20260507191002 12 225 9.7 0.0 0.00 0.00 0.00 43 1006.4
20260507190502 11 270 16.1 0.0 0.00 0.00 0.00 43 1006.4
20260507190002 11 270 11.3 0.0 0.00 0.00 0.00 44 1006.8
20260507185501 11 270 12.9 0.0 0.00 0.00 0.00 45 1006.4
20260507185002 11 270 11.3 0.0 0.00 0.00 0.00 44 1006.8
20260507184502 11 270 16.1 0.0 0.00 0.00 0.00 45 1006.8
20260507184002 11 270 14.5 0.0 0.00 0.00 0.00 45 1006.8
20260507183501 11 248 9.7 0.0 0.00 0.00 0.00 46 1006.4
20260507183002 11 270 12.9 0.0 0.00 0.00 0.00 44 1006.8
20260507182502 10 270 20.9 0.0 0.00 0.00 0.00 44 1006.8
20260507182001 10 248 12.9 0.0 0.00 0.00 0.00 45 1006.8
20260507181501 10 270 16.1 0.0 0.00 0.00 0.00 47 1006.8
20260507181002 10 270 8.0 0.0 0.00 0.00 0.00 47 1006.8
20260507180502 10 225 11.3 0.0 0.00 0.00 0.00 47 1006.4
20260507180006 11 270 12.9 0.0 0.00 0.00 0.00 46 1006.4
20260507175502 11 203 8.0 0.0 0.00 0.00 0.00 46 1006.4
20260507175002 11 203 16.1 0.0 0.00 0.00 0.00 45 1006.4
20260507174502 11 225 9.7 0.0 0.00 0.00 0.00 47 1006.4
20260507173502 11 203 3.2 0.0 0.00 0.00 0.00 47 1006.4
20260507173002 11 270 25.7 0.0 0.00 0.00 0.00 47 1006.4
20260507172501 10 270 9.7 0.0 0.00 0.00 0.00 49 1006.4
20260507172001 11 270 16.1 0.0 0.00 0.00 0.00 48 1006.4
20260507171002 11 203 12.9 0.0 0.00 0.00 0.00 49 1006.4
20260507170501 11 270 16.1 0.0 0.00 0.00 0.00 47 1006.8
20260507170002 11 270 22.5 0.0 0.00 0.00 0.00 46 1006.8
20260507165501 11 270 14.5 0.0 0.00 0.00 0.00 45 1006.4
20260507165002 11 203 11.3 0.0 0.00 0.00 0.00 44 1006.8
20260507164502 11 225 17.7 0.0 0.00 0.00 0.00 44 1006.8
20260507164002 11 270 17.7 0.0 0.00 0.00 0.00 45 1006.8
20260507163501 11 270 8.0 0.0 0.00 0.00 0.00 47 1006.8
20260507163001 11 270 12.9 0.0 0.00 0.00 0.00 50 1006.8
20260507162502 12 270 11.3 0.0 0.00 0.00 0.00 49 1006.8
20260507162002 11 225 16.1 0.0 0.00 0.00 0.00 53 1006.8
20260507161502 11 270 32.2 0.0 0.00 0.00 0.00 54 1006.8
20260507161001 12 225 14.5 0.0 0.00 0.00 0.00 52 1006.8
20260507160002 11 225 6.4 0.0 0.00 0.00 0.00 54 1006.8
20260507155502 11 248 8.0 0.0 0.00 0.00 0.00 54 1006.8
20260507155002 11 203 12.9 0.0 0.00 0.00 0.00 53 1007.1
20260507154501 11 203 9.7 0.0 0.00 0.00 0.00 54 1006.8
20260507154001 11 248 14.5 0.0 0.00 0.00 0.00 55 1006.8
20260507153502 11 203 9.7 0.0 0.00 0.00 0.00 54 1006.8
20260507153002 11 203 8.0 0.0 0.00 0.00 0.00 55 1006.8
20260507152502 11 225 16.1 0.0 0.00 0.00 0.00 55 1007.1
20260507152002 11 203 14.5 0.0 0.00 0.00 0.00 55 1006.8
20260507151501 11 203 16.1 0.0 0.00 0.00 0.00 54 1006.8
20260507151002 11 270 8.0 0.0 0.00 0.00 0.00 56 1006.8
20260507150501 11 203 8.0 0.0 0.00 0.00 0.00 57 1006.8
20260507150001 10 180 14.5 0.0 0.00 0.00 0.00 57 1007.1
20260507145502 10 203 11.3 0.0 0.00 0.00 0.00 57 1006.8
20260507145002 10 203 16.1 0.0 0.00 0.00 0.00 57 1007.1
20260507144501 10 270 9.7 0.0 0.00 0.00 0.00 57 1007.1
20260507144001 10 203 16.1 0.0 0.00 0.00 0.00 58 1007.1
20260507143502 10 270 17.7 0.0 0.00 0.00 0.00 57 1007.1
20260507143002 10 225 14.5 0.0 0.00 0.00 0.00 58 1007.1
20260507142502 10 180 9.7 0.0 0.00 0.00 0.00 58 1007.1
20260507142001 10 203 6.4 0.0 0.00 0.00 0.00 59 1007.1
20260507141501 10 225 14.5 0.0 0.00 0.00 0.00 59 1007.1
20260507141002 10 225 11.3 0.0 0.00 0.00 0.00 58 1007.1
20260507140502 10 248 14.5 0.0 0.00 0.00 0.00 58 1007.1
20260507140002 10 203 12.9 0.0 0.00 0.00 0.00 59 1007.1
20260507135002 9 225 8.0 0.0 0.00 0.00 0.00 60 1007.1
20260507134502 8 225 9.7 0.0 0.00 0.00 0.00 61 1007.1
20260507134002 9 248 9.7 0.0 0.00 0.00 0.00 60 1007.1
20260507133501 9 203 11.3 0.0 0.00 0.00 0.00 60 1007.1
20260507133002 10 225 16.1 0.0 0.00 0.00 0.00 61 1007.1
20260507132501 10 225 9.7 0.0 0.00 0.00 0.00 62 1007.1
20260507132001 9 270 8.0 0.0 0.00 0.00 0.00 63 1007.5
20260507131001 8 225 9.7 0.0 0.00 0.00 0.00 61 1007.5
20260507130502 8 270 8.0 0.0 0.00 0.00 0.00 61 1007.1
20260507130002 8 248 22.5 0.0 0.00 0.00 0.00 62 1007.1
20260507125002 8 203 4.8 0.0 0.00 0.00 0.00 65 1007.1
20260507124502 8 270 12.9 0.0 0.00 0.00 0.00 66 1007.5
20260507124001 8 248 6.4 0.0 0.00 0.00 0.00 68 1007.5
20260507123501 7 225 6.4 0.0 0.00 0.00 0.00 71 1007.5
20260507123002 7 225 8.0 0.0 0.00 0.00 0.00 71 1007.5
20260507122502 7 270 17.7 0.0 0.00 0.00 0.00 72 1007.1
20260507121502 7 225 9.7 0.0 0.00 0.00 0.00 72 1007.1
20260507121002 7 270 9.7 0.0 0.00 0.00 0.00 73 1007.1
20260507120507 7 225 3.2 0.0 0.00 0.00 0.00 77 1007.5
20260507120002 7 270 16.1 0.0 0.00 0.00 0.00 82 1007.1
20260507115502 7 248 6.4 0.0 0.00 0.00 0.00 87 1007.1
20260507115002 7 203 9.7 0.0 0.00 0.00 0.00 89 1007.1
20260507114507 7 225 11.3 0.0 0.00 0.00 0.00 90 1007.1
20260507114002 7 203 4.8 0.0 0.00 0.00 0.00 90 1007.1
20260507113502 7 180 6.4 0.0 0.00 0.00 0.00 90 1007.1
20260507113002 7 203 8.0 0.0 0.00 0.00 0.00 90 1007.1
20260507111503 7 203 9.7 0.0 0.00 0.00 0.00 91 1007.1
20260507111002 7 225 6.4 0.0 0.00 0.00 0.00 92 1006.8
20260507110502 7 203 9.7 0.0 0.00 0.00 0.00 92 1006.8
20260507110002 7 180 8.0 0.0 0.00 0.00 0.00 92 1006.8
20260507105501 7 270 4.8 0.0 0.00 0.00 0.00 93 1006.8
20260507105001 7 225 4.8 0.0 0.00 0.00 0.00 94 1006.8
20260507104502 7 248 3.2 0.0 0.00 0.00 0.00 94 1006.8
20260507104002 7 225 3.2 0.0 0.00 0.00 0.00 94 1006.8
20260507103502 7 203 6.4 0.0 0.00 0.00 0.00 94 1006.8
20260507103002 7 158 6.4 0.0 0.00 0.00 0.00 94 1006.8
20260507102502 7 225 4.8 0.0 0.00 0.00 0.00 94 1006.8
20260507102002 7 203 4.8 0.0 0.00 0.00 0.00 94 1006.8
20260507101002 7 180 8.0 0.0 0.00 0.00 0.00 96 1006.8
20260507100502 6 225 4.8 0.0 0.00 0.00 0.00 98 1006.8
20260507100002 6 180 1.6 0.0 0.00 0.00 0.00 99 1006.8
20260507095502 6 203 3.2 0.0 0.00 0.00 0.00 99 1006.8
20260507094001 6 180 4.8 0.0 0.00 0.00 0.00 99 1006.8
20260507093502 6 203 6.4 0.0 0.00 0.00 0.00 99 1006.8
20260507093002 6 158 4.8 0.0 0.00 0.00 0.00 99 1006.8
20260507092002 6 203 3.2 0.0 0.00 0.00 0.00 99 1006.8
20260507091502 6 158 6.4 0.0 0.00 0.00 0.00 99 1006.4
20260507091002 6 158 4.8 0.0 0.00 0.00 0.00 99 1006.4
20260507090502 6 203 1.6 0.0 0.00 0.00 0.00 99 1006.4
20260507090001 6 225 1.6 0.0 0.00 0.00 0.00 99 1006.4
20260507085502 6 180 4.8 0.0 0.00 0.00 0.00 99 1006.4
20260507085002 6 180 3.2 0.0 0.00 0.00 0.00 99 1006.4
20260507084502 6 135 1.6 0.0 0.00 0.00 0.00 99 1006.8
20260507084002 6 135 3.2 0.0 0.00 0.00 0.00 99 1006.8
20260507083501 6 158 1.6 0.0 0.00 0.00 0.00 99 1006.8
20260507083001 6 203 1.6 0.0 0.00 0.00 0.00 99 1006.8
20260507082002 6 180 3.2 0.0 0.00 0.00 0.00 99 1006.8
20260507081502 6 135 4.8 0.0 0.00 0.00 0.00 99 1006.8
20260507081002 6 180 3.2 0.0 0.00 0.00 0.00 99 1006.8
20260507080002 6 135 3.2 0.0 0.00 0.00 0.00 99 1007.1
20260507075501 6 113 4.8 0.0 0.00 0.00 0.00 99 1007.1
20260507075001 6 158 8.0 0.0 0.00 0.00 0.00 99 1007.1
20260507074501 6 203 4.8 0.0 0.00 0.00 0.00 99 1007.1
20260507074002 6 203 3.2 0.0 0.00 0.00 0.00 99 1007.1
20260507073501 6 180 4.8 0.0 0.00 0.00 0.00 99 1007.1
20260507072502 6 203 4.8 0.0 0.00 0.00 0.00 99 1006.8
20260507072001 6 203 3.2 0.0 0.00 0.00 0.00 99 1007.1
20260507071501 6 180 8.0 0.0 0.00 0.00 0.00 99 1007.1
20260507071002 6 180 4.8 0.0 0.00 0.00 0.00 99 1007.1
20260507070503 6 158 8.0 0.0 0.00 0.00 0.00 99 1007.1
20260507070003 6 180 8.0 0.0 0.00 0.00 0.00 99 1007.1
20260507065002 6 203 4.8 0.0 0.00 0.00 0.00 99 1007.1
20260507064501 6 158 4.8 0.0 0.00 0.00 0.00 99 1007.1
20260507064007 6 203 3.2 0.0 0.00 0.00 0.00 99 1007.1
20260507063502 6 225 4.8 0.0 0.00 0.00 0.00 99 1007.1
20260507063002 6 203 8.0 0.0 0.00 0.00 0.00 99 1007.1
20260507062001 6 203 8.0 0.0 0.00 0.00 0.00 99 1007.1
20260507061502 6 203 4.8 0.0 0.00 0.00 0.00 99 1007.1
20260507060507 6 203 4.8 0.0 0.00 0.00 0.00 99 1007.5
20260507060002 6 158 4.8 0.0 0.00 0.00 0.00 99 1007.1
20260507055002 6 158 4.8 0.0 0.00 0.00 0.00 99 1007.5
20260507053502 6 203 4.8 0.0 0.00 0.00 0.00 99 1007.5
20260507052001 6 135 3.2 0.0 0.00 0.00 0.00 99 1007.8
20260507051002 6 180 3.2 0.0 0.00 0.00 0.00 99 1007.8
20260507050502 6 158 3.2 0.0 0.00 0.00 0.00 99 1007.8
20260507050002 6 180 4.8 0.0 0.00 0.00 0.00 99 1008.1
20260507045002 6 203 3.2 0.0 0.00 0.00 0.00 99 1008.1
20260507044502 6 203 4.8 0.0 0.00 0.00 0.00 99 1008.1
20260507044002 6 180 6.4 0.0 0.00 0.00 0.00 99 1008.1
20260507043007 6 180 3.2 0.0 0.00 0.00 0.00 99 1008.1
20260507042501 6 180 3.2 0.0 0.00 0.00 0.00 99 1008.1
20260507042007 6 180 4.8 0.0 0.00 0.00 0.00 99 1008.1
20260507041501 6 158 6.4 0.0 0.00 0.00 0.00 99 1008.1
20260507041002 6 180 4.8 0.0 0.00 0.00 0.00 99 1008.1
20260507040502 6 180 4.8 0.0 0.00 0.00 0.00 99 1008.5
20260507040002 6 203 3.2 0.0 0.00 0.00 0.00 99 1008.5
20260507035502 6 158 1.6 0.0 0.00 0.00 0.99 99 1008.5
20260507035001 6 180 4.8 0.0 0.00 0.00 0.99 99 1008.5
20260507034507 6 180 3.2 0.0 0.00 0.00 0.99 99 1008.5
20260507034002 6 180 1.6 0.0 0.00 0.00 0.99 98 1008.5
20260507033501 6 180 4.8 0.0 0.00 0.00 0.99 98 1008.5
20260507032502 6 158 6.4 0.0 0.00 0.00 0.99 97 1008.5
20260507032001 6 203 3.2 0.0 0.00 0.00 0.99 97 1008.5
20260507031501 6 158 6.4 0.0 0.00 0.00 0.99 97 1008.5
20260507031002 6 158 3.2 0.0 0.00 0.00 0.99 97 1008.5
20260507030502 6 203 3.2 0.0 0.00 0.00 0.99 96 1008.5
20260507030002 6 180 4.8 0.0 0.00 0.00 0.99 96 1008.8
20260507025501 6 180 3.2 0.0 0.00 0.00 0.99 96 1008.5
20260507025001 6 203 1.6 0.0 0.00 0.00 0.99 95 1008.8
20260507024502 7 180 3.2 0.0 0.00 0.00 0.99 95 1008.8
20260507024002 7 203 3.2 0.0 0.00 0.00 0.99 95 1008.8
20260507023002 7 203 3.2 0.0 0.00 0.00 0.99 94 1008.8
20260507022001 7 203 3.2 0.0 0.00 0.00 0.99 93 1008.8
20260507021501 7 203 0.0 0.0 0.00 0.00 0.99 93 1008.8
20260507020502 7 203 4.8 0.0 0.00 0.00 0.99 94 1008.8
20260507020002 7 180 1.6 0.0 0.00 0.00 0.99 94 1008.8
20260507015501 7 180 3.2 0.0 0.00 0.00 0.99 93 1009.1
20260507014002 7 203 1.6 0.0 0.00 0.00 0.99 92 1009.1
20260507013502 7 203 4.8 0.0 0.00 0.00 0.99 91 1009.1
20260507012501 7 203 1.6 0.0 0.00 0.00 0.99 90 1009.1
20260507012002 7 180 1.6 0.0 0.00 0.00 0.99 90 1009.1
20260507010502 7 203 1.6 0.0 0.00 0.00 0.99 88 1008.8
20260507010002 7 203 3.2 0.0 0.00 0.00 0.99 89 1008.8
20260507004502 7 158 1.6 0.0 0.00 0.00 0.99 89 1008.5
20260507003002 7 203 3.2 0.0 0.00 0.00 0.99 89 1008.5
20260507002502 7 225 1.6 0.0 0.00 0.00 0.99 89 1008.5
20260507002001 7 203 3.2 0.0 0.00 0.00 0.99 89 1008.5
20260507001501 7 203 1.6 0.0 0.00 0.00 0.99 90 1008.5
20260507000502 7 203 1.6 0.0 0.00 0.00 0.99 91 1008.5
20260507000002 7 203 3.2 0.0 0.00 0.00 0.99 90 1008.5
20260506235501 7 203 1.6 0.0 0.00 0.00 0.99 90 1008.5
20260506235002 7 225 1.6 0.0 0.00 0.00 0.99 89 1008.5
20260506234502 7 203 0.0 0.0 0.00 0.00 0.99 89 1008.1
20260506234002 7 248 1.6 0.0 0.00 0.00 0.99 88 1008.1
20260506233502 8 203 1.6 0.0 0.00 0.00 0.99 87 1008.1
20260506232001 8 203 0.0 0.0 0.00 0.00 0.99 85 1007.8
20260506231501 8 225 1.6 0.0 0.00 0.00 0.99 85 1008.1
20260506231001 8 203 1.6 0.0 0.00 0.00 0.99 83 1007.8
20260506230502 8 270 1.6 0.0 0.00 0.00 0.99 83 1008.1
20260506230002 8 203 1.6 0.0 0.00 0.00 0.99 82 1008.1